Theta_e
344 345 344 344 344 343 342 344 343 341 338 343 342 341 341 342 342 342 341 340 339 339 338 337 337 336 333 335 337 338 338 338 335 328 330 339 339 340 338 333 331 333 334
344 345 343 344 342 343 344 342 340 334 336 343 341 337 338 340 342 342 343 343 340 337 336 337 337 337 338 338 335 335 336 336 334 337 339 339 338 338 337 335 337 340 338
345 344 343 342 344 343 342 341 338 328 340 343 340 337 335 338 341 341 340 339 337 337 336 336 336 337 337 337 335 335 336 336 335 336 335 335 335 336 336 335 335 336 336
345 344 343 343 343 342 341 339 336 327 343 340 338 336 335 335 338 338 337 336 335 336 336 335 332 332 334 334 333 336 336 335 333 331 327 326 329 331 330 333 333 333 333
345 344 343 342 343 343 339 335 331 338 343 337 338 335 335 335 336 338 334 334 334 335 335 329 325 332 333 331 333 335 334 333 332 329 324 319 325 328 328 327 328 331 332
344 343 343 343 343 341 334 331 328 342 342 337 338 335 335 336 337 337 334 333 331 334 333 324 321 329 332 330 331 332 333 333 332 325 320 324 328 329 327 327 328 329 330
342 342 343 343 343 338 333 330 332 341 342 340 340 336 333 335 335 336 334 333 333 333 326 324 323 322 328 328 329 329 330 332 332 331 324 323 328 329 327 325 325 326 328
342 343 343 343 340 339 333 331 335 341 342 341 340 338 332 331 333 332 332 332 326 326 326 325 324 323 322 324 328 329 329 330 330 331 329 322 325 326 322 323 323 323 324
343 344 344 342 340 336 328 329 334 341 342 342 341 335 333 324 320 320 323 325 325 325 325 324 324 323 323 323 325 329 329 328 328 330 329 326 323 323 322 320 320 319 315
343 343 344 341 339 334 329 330 333 339 339 342 342 335 333 330 322 322 325 324 322 322 323 323 323 322 322 321 322 325 329 329 328 328 329 328 324 322 323 323 320 319 318
344 344 342 340 338 333 330 332 334 334 335 337 343 336 334 331 328 325 321 322 322 322 321 321 320 320 320 322 321 321 328 327 326 327 328 327 325 321 322 325 324 321 320
342 343 341 341 338 334 329 331 337 336 333 334 340 337 335 333 329 328 327 325 320 319 320 320 321 321 323 325 325 324 325 325 325 325 325 325 324 322 321 324 327 326 323
340 341 341 340 338 336 334 327 336 337 336 335 334 336 335 335 335 333 334 329 326 324 319 318 320 323 328 328 327 325 324 323 323 324 324 324 323 322 322 325 327 328 327
335 339 340 340 339 338 336 334 324 333 336 336 335 334 335 335 335 335 333 329 326 324 325 328 330 331 331 330 330 329 328 327 325 325 323 322 323 323 323 323 329 330 329
327 336 340 340 338 337 337 337 332 324 325 324 327 329 331 332 333 331 328 329 330 331 330 329 329 329 329 330 331 331 330 330 330 329 328 326 325 326 327 326 325 331 332
338 339 338 339 338 337 337 337 338 336 332 329 329 329 330 330 329 328 327 328 330 329 329 328 327 327 329 331 332 333 333 332 332 332 332 331 330 329 330 330 329 327 329
340 338 335 332 339 339 338 337 338 339 339 335 331 330 329 330 331 330 327 327 327 327 326 326 326 326 329 332 332 332 333 333 333 333 333 332 331 331 330 330 330 329 329
340 340 339 340 339 338 339 338 337 338 338 336 334 334 333 333 333 332 330 330 330 330 329 328 328 329 331 333 334 334 333 333 332 333 334 331 332 332 332 330 330 331 329
340 341 340 340 334 330 337 339 337 336 337 339 337 336 336 336 335 333 332 332 331 334 334 333 333 334 334 332 332 332 332 331 331 332 332 332 333 333 332 331 329 330 327
339 340 339 338 335 337 340 338 339 338 339 338 337 337 336 336 336 336 335 333 333 334 335 335 334 334 334 334 333 332 332 332 333 332 330 330 332 333 332 331 330 328 325
340 339 340 340 340 340 340 341 340 339 340 337 337 337 336 336 335 337 336 337 336 336 334 334 334 334 334 334 333 331 328 329 329 327 327 328 329 331 331 330 328 324 322
338 339 338 340 340 341 340 339 339 340 339 337 336 336 338 338 338 338 337 337 337 336 335 334 335 335 334 333 332 331 327 327 327 327 327 327 327 329 328 325 323 322 321
336 338 338 339 339 340 340 339 340 339 338 338 337 336 337 339 338 338 338 338 337 337 335 334 334 334 335 333 332 331 328 324 324 327 326 324 326 327 324 323 322 321 320
332 337 337 338 339 339 338 338 339 339 338 338 336 336 337 338 338 338 338 337 337 336 335 333 334 333 331 330 329 327 328 329 326 325 323 324 324 323 321 320 320 320 319
319 324 334 336 336 337 337 336 336 335 335 336 336 336 335 335 337 337 337 336 336 335 334 332 329 326 325 325 325 324 323 323 323 321 321 320 321 322 321 319 318 317 316
316 316 317 324 332 335 335 335 335 333 333 334 334 335 334 334 334 333 331 331 330 325 319 315 316 317 318 319 320 320 321 319 319 319 317 318 318 319 319 318 315 314 313
Wind_Speed
28 27 25 24 22 20 18 18 17 15 17 18 20 18 18 19 22 25 25 23 22 20 19 19 19 20 20 20 19 19 19 20 18 17 19 19 22 20 18 18 19 17 15
36 30 27 25 22 21 20 18 15 16 21 18 19 18 18 18 19 23 22 22 20 18 18 18 18 18 19 18 19 17 15 17 20 19 20 20 19 19 17 18 17 17 17
35 30 27 25 23 23 21 18 15 18 21 20 19 18 18 19 19 20 19 18 18 18 17 17 17 17 19 18 16 13 11 15 17 16 14 13 12 13 13 14 13 14 16
34 30 28 26 24 23 20 18 18 22 21 20 19 19 19 20 20 20 19 18 18 17 17 16 18 19 20 18 14 14 16 14 13 11 10 10 13 13 11 10 10 10 12
33 30 27 25 24 21 19 20 22 24 22 19 18 19 20 20 20 20 19 19 17 17 16 17 19 19 19 17 17 14 15 12 11 10 10 12 13 12 12 11 10 10 9
32 28 25 24 22 19 19 22 25 24 23 20 17 19 20 20 21 21 20 19 17 17 16 18 19 18 17 16 16 14 11 10 8 11 12 13 13 11 12 12 11 10 9
29 26 24 23 21 19 18 21 26 25 23 20 18 18 19 19 20 21 20 19 18 17 17 17 17 17 15 13 13 11 9 8 8 9 11 11 11 10 11 11 11 10 10
28 26 23 22 20 18 17 19 23 23 23 20 17 18 17 18 18 19 18 18 18 17 16 15 14 14 13 12 11 9 7 6 6 6 8 9 8 9 10 10 10 10 9
27 23 22 20 20 17 16 19 21 22 21 21 18 16 14 15 17 17 17 16 15 14 14 13 12 11 10 9 9 8 8 5 4 4 4 6 6 6 7 8 8 8 8
28 23 23 21 19 16 16 19 20 21 19 19 18 16 15 13 14 15 15 15 14 13 11 10 9 8 7 7 7 7 6 3 1 1 0 3 5 4 5 5 6 7 7
25 27 22 21 18 16 16 18 18 20 19 17 18 16 13 10 11 12 12 11 11 10 10 9 8 6 6 6 6 7 6 3 1 2 1 2 4 5 4 3 4 5 5
22 24 23 21 19 16 16 19 17 18 20 19 18 16 12 9 10 10 8 7 8 8 7 7 6 5 5 4 3 4 3 2 2 3 3 4 4 5 5 4 4 4 5
7 19 24 22 19 16 14 17 19 19 19 18 18 17 14 11 11 10 7 6 7 7 7 6 6 5 5 2 2 2 3 4 4 6 5 6 6 6 5 7 5 5 5
16 17 23 24 18 15 13 13 17 19 19 19 17 15 15 13 12 11 9 6 7 7 7 7 6 5 5 4 3 3 4 5 6 6 7 7 8 8 8 7 8 8 7
35 35 24 24 23 18 16 13 15 17 19 17 17 16 16 13 14 12 9 9 7 8 7 7 6 6 6 7 7 8 9 8 8 8 9 10 11 10 9 8 8 8 10
34 41 38 20 24 24 23 17 16 17 17 18 16 16 15 14 13 12 11 11 10 8 7 7 7 7 7 7 8 8 9 10 10 11 12 13 13 14 13 10 9 8 9
35 29 31 33 27 26 24 21 18 18 20 22 20 17 16 15 13 13 12 12 11 10 9 9 9 8 9 8 10 12 11 11 12 14 16 17 16 15 15 15 13 9 8
31 34 34 33 31 18 22 23 21 22 17 22 25 21 19 18 16 16 14 13 11 10 10 10 10 10 11 11 11 11 13 14 13 13 15 17 19 16 15 18 16 12 10
30 31 33 31 27 27 37 31 23 21 21 19 23 23 19 17 18 17 16 14 13 11 12 12 12 11 11 12 13 13 15 17 17 19 20 18 15 17 17 14 16 12 12
28 29 29 29 28 30 30 26 25 24 21 14 18 22 18 19 15 15 15 14 12 12 13 12 13 12 13 13 16 17 18 19 21 22 20 21 22 19 15 14 11 10 8
25 28 30 33 35 31 29 28 26 27 23 18 15 20 20 21 17 16 15 13 13 15 13 13 13 14 15 15 14 18 22 21 23 24 23 21 19 15 16 13 11 8 5
27 26 26 28 28 27 29 29 26 29 27 28 23 20 19 18 19 20 19 17 15 14 14 13 14 14 17 16 13 17 4 12 18 18 14 10 10 9 13 13 11 7 7
27 29 26 28 29 30 30 27 24 23 23 24 23 24 21 17 20 21 20 21 19 18 16 17 16 16 17 19 19 9 2 3 4 5 5 12 6 7 11 12 11 10 10
29 28 26 28 28 29 29 28 29 26 20 25 26 26 23 22 23 22 18 18 17 18 19 19 19 17 14 17 18 15 17 14 3 3 3 3 3 6 8 9 12 11 11
28 26 25 25 25 27 27 28 27 29 27 22 24 24 24 21 17 18 18 17 17 18 19 19 16 15 14 14 14 14 12 14 16 8 4 6 5 6 7 10 12 13 11
22 20 20 21 21 25 27 26 26 29 26 21 17 20 20 20 18 18 17 17 17 15 15 14 14 14 14 14 13 13 14 8 4 4 3 6 6 6 7 11 13 13 10
Wind_Direction
164 161 157 148 146 145 138 133 127 125 125 123 114 111 104 103 114 114 111 109 104 98 95 95 94 94 97 97 95 92 83 74 89 85 84 77 73 73 79 73 69 66 61
158 161 158 153 150 144 138 133 132 130 131 127 118 113 111 109 111 113 109 107 104 101 101 99 99 100 100 99 98 94 87 83 87 82 81 76 70 72 71 66 65 63 54
156 159 157 152 148 146 143 138 137 134 132 127 117 115 116 116 116 112 112 109 105 106 104 103 101 105 105 100 93 89 88 100 97 88 77 76 76 73 69 63 66 62 61
156 158 156 155 153 149 145 145 141 139 134 132 123 120 120 122 122 120 121 115 114 110 109 109 111 114 110 100 92 93 101 108 94 85 81 73 72 63 62 65 67 65 63
155 158 159 158 155 150 147 143 142 140 140 135 129 123 123 126 127 123 127 124 120 115 113 116 118 120 114 100 95 101 111 104 81 68 76 75 72 66 64 61 64 67 66
157 159 160 158 154 150 146 144 145 142 143 136 136 126 127 129 132 131 131 128 130 118 116 119 122 126 122 113 109 105 112 102 77 70 74 74 71 70 66 64 64 65 69
156 158 161 158 153 150 147 148 149 146 148 143 137 128 128 131 134 140 139 135 129 124 123 126 127 127 130 125 121 112 103 117 88 73 69 69 72 71 66 64 63 63 65
156 160 162 159 153 150 150 152 152 149 149 150 143 132 130 134 136 139 140 139 134 132 131 130 131 130 130 133 135 125 121 109 97 71 63 57 60 62 57 57 58 61 62
158 160 160 159 154 152 151 154 156 154 150 158 151 137 135 138 140 141 142 143 142 141 140 139 138 137 133 130 139 138 125 111 116 102 57 48 46 49 47 45 49 50 52
157 163 160 158 157 153 153 157 158 159 154 150 159 145 138 143 145 148 149 151 151 152 151 149 146 143 139 136 140 154 150 141 135 168 115 29 24 24 27 33 35 36 38
160 164 166 163 162 157 157 162 162 165 164 161 163 156 148 149 156 154 156 159 159 161 161 159 157 152 150 141 140 163 172 178 189 219 235 333 347 348 349 357 13 20 20
173 167 168 168 168 165 162 166 165 167 169 168 169 168 164 165 163 163 160 168 175 178 180 176 170 164 171 166 159 158 183 233 285 273 269 296 313 327 318 316 330 344 350
233 184 174 175 174 177 170 172 172 174 175 176 179 178 177 174 174 178 183 197 201 199 200 194 190 185 185 188 247 265 266 273 303 271 285 277 300 308 301 294 301 309 314
185 231 199 179 177 183 180 185 182 186 184 185 185 190 193 196 208 203 211 210 213 210 209 195 192 198 217 239 255 269 277 288 283 289 280 283 295 299 296 290 279 290 290
174 193 205 190 182 191 194 188 184 190 194 194 192 194 203 217 203 207 210 209 205 206 209 215 227 236 244 249 260 267 268 277 285 290 286 280 281 286 293 293 283 263 273
176 183 175 202 203 192 193 198 202 200 200 197 191 196 206 207 214 218 224 227 224 226 229 236 241 251 265 273 276 271 276 276 281 281 282 281 279 275 277 283 292 286 271
184 189 181 179 214 203 201 201 212 214 221 213 206 200 205 210 217 226 228 225 225 231 235 241 245 247 254 262 273 281 280 280 281 281 278 279 284 275 273 275 273 276 285
184 189 184 184 181 207 228 214 212 218 220 217 207 201 206 213 217 219 223 228 229 232 239 241 243 254 259 269 273 274 278 284 288 291 296 287 276 276 276 273 256 272 275
197 191 187 193 192 201 217 213 208 218 222 234 218 214 216 216 222 225 227 231 231 230 236 243 247 259 263 271 274 281 285 287 287 288 290 288 282 277 277 282 253 255 275
199 198 202 201 202 205 213 213 212 215 218 224 218 212 218 214 219 222 228 229 227 231 235 241 249 257 263 277 279 282 287 289 287 289 287 287 280 275 263 273 267 236 257
200 202 201 203 208 209 208 208 215 215 217 208 215 214 219 215 223 225 221 216 221 233 244 251 251 263 264 273 281 287 288 289 285 289 286 279 281 280 258 244 220 224 257
204 205 207 207 207 209 208 213 217 219 216 213 217 221 220 221 215 223 221 222 226 239 245 256 260 268 276 279 276 292 295 294 275 270 275 299 300 258 224 201 207 224 260
208 210 212 210 210 208 212 212 213 216 217 217 221 222 221 213 211 217 217 221 222 237 249 258 265 269 274 277 279 267 294 253 317 271 266 318 313 230 215 210 213 230 240
212 215 213 215 219 219 216 214 219 213 205 218 219 221 222 222 221 225 216 213 223 243 254 261 265 267 263 273 283 272 263 267 263 301 309 341 305 280 237 214 213 216 216
215 219 221 220 218 223 227 223 221 240 237 229 221 220 222 222 219 224 224 226 232 238 253 260 261 261 260 259 262 274 280 273 266 247 267 279 272 276 300 228 211 201 198
213 220 222 223 219 224 219 223 228 224 229 237 216 206 199 201 216 222 226 229 232 236 239 243 254 259 261 257 257 256 252 244 264 249 263 260 262 291 259 207 197 190 188